Time,TemperatureF,DewpointF,PressureIn,WindDirection,WindDirectionDegrees,WindSpeedMPH,WindSpeedGustMPH,Humidity,HourlyPrecipIn,Conditions,Clouds,dailyrainin,SoftwareType,DateUTC
2013-03-15 00:13:00,40.9,20.0,30.20,South,186,0.0,1.0,43,0.00,,,0.00,weatherlink.com 1.10,2013-03-15 06:13:00,
2013-03-15 00:28:00,39.8,20.0,30.21,South,186,0.0,2.0,45,0.00,,,0.00,weatherlink.com 1.10,2013-03-15 06:28:00,
2013-03-15 00:43:00,39.1,20.0,30.21,South,186,0.0,0.0,46,0.00,,,0.00,weatherlink.com 1.10,2013-03-15 06:43:00,
2013-03-15 00:58:00,38.5,20.0,30.20,South,186,0.0,3.0,48,0.00,,,0.00,weatherlink.com 1.10,2013-03-15 06:58:00,
2013-03-15 01:13:00,38.5,20.0,30.20,South,186,0.0,1.0,48,0.00,,,0.00,weatherlink.com 1.10,2013-03-15 07:13:00,
2013-03-15 01:28:00,38.4,21.0,30.20,South,186,0.0,3.0,49,0.00,,,0.00,weatherlink.com 1.10,2013-03-15 07:28:00,
2013-03-15 01:43:00,38.5,20.0,30.20,South,186,0.0,2.0,48,0.00,,,0.00,weatherlink.com 1.10,2013-03-15 07:43:00,
2013-03-15 01:58:00,38.5,20.0,30.20,South,186,0.0,0.0,48,0.00,,,0.00,weatherlink.com 1.10,2013-03-15 07:58:00,
2013-03-15 02:13:00,36.6,20.0,30.20,South,186,0.0,3.0,51,0.00,,,0.00,weatherlink.com 1.10,2013-03-15 08:13:00,
2013-03-15 02:29:00,35.6,20.0,30.19,South,186,0.0,2.0,53,0.00,,,0.00,weatherlink.com 1.10,2013-03-15 08:29:00,
2013-03-15 02:44:00,35.1,20.0,30.18,South,186,0.0,3.0,54,0.00,,,0.00,weatherlink.com 1.10,2013-03-15 08:44:00,
2013-03-15 02:59:00,34.5,20.0,30.18,South,186,0.0,2.0,56,0.00,,,0.00,weatherlink.com 1.10,2013-03-15 08:59:00,
2013-03-15 03:14:00,34.4,20.0,30.18,South,186,0.0,0.0,56,0.00,,,0.00,weatherlink.com 1.10,2013-03-15 09:14:00,
2013-03-15 03:29:00,33.8,21.0,30.17,South,186,0.0,3.0,59,0.00,,,0.00,weatherlink.com 1.10,2013-03-15 09:29:00,
2013-03-15 03:44:00,36.3,21.0,30.17,South,183,0.0,5.0,54,0.00,,,0.00,weatherlink.com 1.10,2013-03-15 09:44:00,
2013-03-15 03:59:00,35.9,20.0,30.17,South,183,0.0,2.0,52,0.00,,,0.00,weatherlink.com 1.10,2013-03-15 09:59:00,
2013-03-15 04:14:00,34.4,20.0,30.16,South,183,0.0,2.0,56,0.00,,,0.00,weatherlink.com 1.10,2013-03-15 10:14:00,
2013-03-15 04:29:00,34.4,20.0,30.16,South,183,0.0,3.0,57,0.00,,,0.00,weatherlink.com 1.10,2013-03-15 10:29:00,
2013-03-15 04:44:00,34.4,20.0,30.16,South,183,0.0,0.0,56,0.00,,,0.00,weatherlink.com 1.10,2013-03-15 10:44:00,
2013-03-15 04:59:00,33.4,20.0,30.16,South,183,0.0,2.0,58,0.00,,,0.00,weatherlink.com 1.10,2013-03-15 10:59:00,
2013-03-15 05:14:00,32.1,20.0,30.15,South,183,1.0,2.0,61,0.00,,,0.00,weatherlink.com 1.10,2013-03-15 11:14:00,
2013-03-15 05:29:00,31.8,21.0,30.16,South,183,0.0,2.0,64,0.00,,,0.00,weatherlink.com 1.10,2013-03-15 11:29:00,
2013-03-15 05:44:00,32.4,21.0,30.16,South,183,2.0,2.0,62,0.00,,,0.00,weatherlink.com 1.10,2013-03-15 11:44:00,
2013-03-15 05:59:00,33.2,21.0,30.16,South,183,2.0,3.0,60,0.00,,,0.00,weatherlink.com 1.10,2013-03-15 11:59:00,
2013-03-15 06:14:00,33.9,20.0,30.15,South,183,0.0,2.0,58,0.00,,,0.00,weatherlink.com 1.10,2013-03-15 12:14:00,
2013-03-15 06:29:00,33.4,20.0,30.16,South,183,0.0,2.0,58,0.00,,,0.00,weatherlink.com 1.10,2013-03-15 12:29:00,
2013-03-15 06:44:00,32.1,20.0,30.16,South,183,0.0,2.0,62,0.00,,,0.00,weatherlink.com 1.10,2013-03-15 12:44:00,
2013-03-15 06:59:00,32.8,20.0,30.17,South,183,0.0,3.0,59,0.00,,,0.00,weatherlink.com 1.10,2013-03-15 12:59:00,
2013-03-15 07:14:00,33.0,20.0,30.17,South,183,0.0,2.0,59,0.00,,,0.00,weatherlink.com 1.10,2013-03-15 13:14:00,
2013-03-15 07:29:00,33.9,20.0,30.16,South,183,1.0,3.0,57,0.00,,,0.00,weatherlink.com 1.10,2013-03-15 13:29:00,
2013-03-15 07:44:00,34.3,20.0,30.17,South,183,0.0,2.0,57,0.00,,,0.00,weatherlink.com 1.10,2013-03-15 13:44:00,
2013-03-15 07:59:00,33.7,20.0,30.18,South,183,0.0,2.0,57,0.00,,,0.00,weatherlink.com 1.10,2013-03-15 13:59:00,
2013-03-15 08:14:00,34.1,21.0,30.18,South,183,0.0,0.0,58,0.00,,,0.00,weatherlink.com 1.10,2013-03-15 14:14:00,
2013-03-15 08:44:00,39.8,21.0,30.17,South,183,0.0,0.0,48,0.00,,,0.00,weatherlink.com 1.10,2013-03-15 14:44:00,
2013-03-15 09:15:00,45.3,22.0,30.17,South,183,0.0,3.0,40,0.00,,,0.00,weatherlink.com 1.10,2013-03-15 15:15:00,
2013-03-15 09:30:00,45.9,23.0,30.17,South,183,0.0,1.0,40,0.00,,,0.00,weatherlink.com 1.10,2013-03-15 15:30:00,
2013-03-15 09:45:00,47.0,25.0,30.16,South,183,0.0,4.0,42,0.00,,,0.00,weatherlink.com 1.10,2013-03-15 15:45:00,
2013-03-15 10:00:00,48.3,23.0,30.16,South,183,0.0,2.0,37,0.00,,,0.00,weatherlink.com 1.10,2013-03-15 16:00:00,
2013-03-15 10:15:00,49.0,24.0,30.15,South,183,0.0,3.0,38,0.00,,,0.00,weatherlink.com 1.10,2013-03-15 16:15:00,
2013-03-15 10:30:00,49.6,25.0,30.15,South,183,1.0,4.0,38,0.00,,,0.00,weatherlink.com 1.10,2013-03-15 16:30:00,
2013-03-15 10:45:00,52.1,25.0,30.13,South,183,1.0,3.0,35,0.00,,,0.00,weatherlink.com 1.10,2013-03-15 16:45:00,
2013-03-15 11:00:00,53.5,23.0,30.12,South,182,0.0,4.0,31,0.00,,,0.00,weatherlink.com 1.10,2013-03-15 17:00:00,
2013-03-15 11:15:00,55.4,23.0,30.12,South,182,0.0,3.0,29,0.00,,,0.00,weatherlink.com 1.10,2013-03-15 17:15:00,
2013-03-15 11:30:00,57.3,22.0,30.12,South,182,0.0,4.0,26,0.00,,,0.00,weatherlink.com 1.10,2013-03-15 17:30:00,
2013-03-15 11:45:00,59.0,24.0,30.11,South,188,0.0,5.0,26,0.00,,,0.00,weatherlink.com 1.10,2013-03-15 17:45:00,
2013-03-15 12:00:00,60.3,23.0,30.10,SSW,194,0.0,5.0,24,0.00,,,0.00,weatherlink.com 1.10,2013-03-15 18:00:00,
2013-03-15 12:15:00,61.3,24.0,30.09,SSW,210,0.0,7.0,24,0.00,,,0.00,weatherlink.com 1.10,2013-03-15 18:15:00,
2013-03-15 12:30:00,62.8,24.0,30.08,SW,214,5.0,6.0,23,0.00,,,0.00,weatherlink.com 1.10,2013-03-15 18:30:00,
2013-03-15 12:45:00,64.1,25.0,30.07,WSW,252,3.0,6.0,23,0.00,,,0.00,weatherlink.com 1.10,2013-03-15 18:45:00,
2013-03-15 13:00:00,64.5,22.0,30.06,WSW,253,0.0,7.0,20,0.00,,,0.00,weatherlink.com 1.10,2013-03-15 19:00:00,
2013-03-15 13:15:00,64.7,23.0,30.05,West,275,3.0,7.0,20,0.00,,,0.00,weatherlink.com 1.10,2013-03-15 19:15:00,
2013-03-15 13:30:00,65.9,25.0,30.04,West,279,0.0,7.0,21,0.00,,,0.00,weatherlink.com 1.10,2013-03-15 19:30:00,
2013-03-15 13:45:00,66.2,23.0,30.03,WNW,302,3.0,11.0,19,0.00,,,0.00,weatherlink.com 1.10,2013-03-15 19:45:00,
2013-03-15 14:01:00,67.7,23.0,30.02,West,271,3.0,14.0,18,0.00,,,0.00,weatherlink.com 1.10,2013-03-15 20:01:00,
2013-03-15 14:31:00,68.9,25.0,29.99,WSW,257,8.0,15.0,19,0.00,,,0.00,weatherlink.com 1.10,2013-03-15 20:31:00,
2013-03-15 14:46:00,68.4,23.0,29.99,NW,325,7.0,14.0,18,0.00,,,0.00,weatherlink.com 1.10,2013-03-15 20:46:00,
2013-03-15 15:16:00,68.8,23.0,29.98,West,279,8.0,19.0,18,0.00,,,0.00,weatherlink.com 1.10,2013-03-15 21:16:00,
2013-03-15 16:31:00,66.4,21.0,29.95,NNW,327,5.0,10.0,18,0.00,,,0.00,weatherlink.com 1.10,2013-03-15 22:31:00,
2013-03-15 16:46:00,65.4,21.0,29.94,NW,325,6.0,12.0,18,0.00,,,0.00,weatherlink.com 1.10,2013-03-15 22:46:00,
2013-03-15 17:01:00,65.0,19.0,29.93,NNW,334,5.0,12.0,17,0.00,,,0.00,weatherlink.com 1.10,2013-03-15 23:01:00,
2013-03-15 17:46:00,65.3,15.0,29.92,NNW,328,6.0,21.0,14,0.00,,,0.00,weatherlink.com 1.10,2013-03-15 23:46:00,
2013-03-15 18:16:00,65.3,18.0,29.93,WNW,299,5.0,8.0,16,0.00,,,0.00,weatherlink.com 1.10,2013-03-16 00:16:00,
2013-03-15 18:32:00,64.9,17.0,29.92,NW,317,8.0,14.0,16,0.00,,,0.00,weatherlink.com 1.10,2013-03-16 00:32:00,
2013-03-15 18:46:00,63.4,18.0,29.93,WNW,282,0.0,10.0,17,0.00,,,0.00,weatherlink.com 1.10,2013-03-16 00:46:00,
2013-03-15 19:02:00,62.0,18.0,29.93,NW,323,5.0,9.0,18,0.00,,,0.00,weatherlink.com 1.10,2013-03-16 01:02:00,
2013-03-15 19:16:00,61.2,17.0,29.94,NNW,327,4.0,9.0,18,0.00,,,0.00,weatherlink.com 1.10,2013-03-16 01:16:00,
2013-03-15 19:31:00,60.4,18.0,29.94,NNW,327,0.0,4.0,19,0.00,,,0.00,weatherlink.com 1.10,2013-03-16 01:31:00,
2013-03-15 19:47:00,59.0,18.0,29.94,NW,326,0.0,2.0,20,0.00,,,0.00,weatherlink.com 1.10,2013-03-16 01:47:00,
2013-03-15 20:02:00,56.9,19.0,29.93,NNW,327,0.0,1.0,23,0.00,,,0.00,weatherlink.com 1.10,2013-03-16 02:02:00,
2013-03-15 20:16:00,54.5,19.0,29.93,NNW,327,0.0,1.0,25,0.00,,,0.00,weatherlink.com 1.10,2013-03-16 02:16:00,
2013-03-15 20:31:00,54.5,18.0,29.93,NNW,327,0.0,3.0,24,0.00,,,0.00,weatherlink.com 1.10,2013-03-16 02:31:00,
2013-03-15 21:01:00,52.4,21.0,29.93,NW,326,0.0,1.0,29,0.00,,,0.00,weatherlink.com 1.10,2013-03-16 03:01:00,
2013-03-15 21:16:00,50.9,20.0,29.93,NW,326,0.0,1.0,30,0.00,,,0.00,weatherlink.com 1.10,2013-03-16 03:16:00,
2013-03-15 21:31:00,50.3,20.0,29.92,NNW,327,0.0,1.0,30,0.00,,,0.00,weatherlink.com 1.10,2013-03-16 03:31:00,
2013-03-15 21:46:00,50.2,20.0,29.92,NNW,327,0.0,1.0,30,0.00,,,0.00,weatherlink.com 1.10,2013-03-16 03:46:00,
2013-03-15 22:01:00,50.1,20.0,29.92,NW,326,0.0,3.0,30,0.00,,,0.00,weatherlink.com 1.10,2013-03-16 04:01:00,
2013-03-15 22:16:00,49.4,20.0,29.92,NNW,327,1.0,3.0,32,0.00,,,0.00,weatherlink.com 1.10,2013-03-16 04:16:00,
2013-03-15 22:31:00,48.4,20.0,29.92,NNW,327,1.0,3.0,32,0.00,,,0.00,weatherlink.com 1.10,2013-03-16 04:31:00,
2013-03-15 22:46:00,47.3,19.0,29.91,NNW,327,3.0,4.0,33,0.00,,,0.00,weatherlink.com 1.10,2013-03-16 04:46:00,
2013-03-15 23:01:00,46.2,18.0,29.91,NW,326,2.0,4.0,33,0.00,,,0.00,weatherlink.com 1.10,2013-03-16 05:01:00,
2013-03-15 23:16:00,46.4,19.0,29.91,NW,326,1.0,4.0,34,0.00,,,0.00,weatherlink.com 1.10,2013-03-16 05:16:00,
2013-03-15 23:31:00,46.7,20.0,29.91,NW,326,2.0,4.0,34,0.00,,,0.00,weatherlink.com 1.10,2013-03-16 05:31:00,
2013-03-15 23:46:00,47.3,19.0,29.92,NNW,327,2.0,3.0,33,0.00,,,0.00,weatherlink.com 1.10,2013-03-16 05:46:00,